Location: Cork
(51.8990°N, 8.4960°W)
Time: 11:51:08
(UTC+01:00)

Iridium 66 - Visible Passes

Search period start: 24 July 2017 00:00
Search period end: 03 August 2017 00:00
Orbit: 776 x 779 km, 86.4° (Epoch: 23 July)

Date Brightness Start Highest point End Pass type
(mag) Time Alt. Az. Time Alt. Az. Time Alt. Az.
24 Jul 9.3 05:02:59 10° NE 05:05:21 13° ENE 05:07:43 10° E visible
27 Jul 9.0 05:02:21 10° NNE 05:05:46 17° ENE 05:09:10 10° ESE visible
28 Jul 9.5 04:30:37 10° NE 04:31:42 11° ENE 04:32:49 10° ENE visible
30 Jul 8.7 05:02:01 10° NNE 05:06:07 23° ENE 05:10:12 10° ESE visible
31 Jul 9.0 04:29:21 10° NNE 04:32:09 14° ENE 04:34:57 10° E visible
02 Aug 8.2 05:01:50 10° NNE 05:06:26 30° ENE 05:11:00 10° SE visible
